{"data":{"norad_id":49052,"intl_designator":"2021-068A","name":"MONOLITH","alt_names":[],"object_type":"PAYLOAD","status":"ACTIVE","operator":null,"country":"US","launch_date":"2021-07-29","launch_site_code":"RLLB","launch_vehicle":null,"mission":null,"orbit_class":"UNKNOWN","rcs_meters":null,"size_class":null,"mass_kg":null,"dimensions":null,"purposes":[],"wikipedia_slug":null,"has_3d_model":false,"image_url":null,"decayed_at":null,"tle_current":{"epoch":"2026-09-20T20:45:59.855904Z","epoch_age_seconds":69628,"freshness":"FRESH","line1":"1 49052U 21068A   26263.86527611  .00003548  00000+0  21947-3 0  9997","line2":"2 49052  37.0230  49.7957 0003830 286.8131  73.2195 15.09951646281746","mean_motion":15.09951646,"eccentricity":0.000383,"inclination_deg":37.023,"raan_deg":49.7957,"arg_perigee_deg":286.8131,"mean_anomaly_deg":73.2195,"bstar":0.00021947,"rev_number":28174,"period_min":95.367292311293,"perigee_km":533.69936904737,"apogee_km":538.99586426373,"semimajor_km":6914.4846166555,"source":"CELESTRAK","updated_at":"2026-09-21T09:00:07.943689Z"}}}